星链-35855(STARLINK-35855)

导读

STARLINK-35855是美国太空探索技术公司(SpaceX)星链(Starlink)星座的组网卫星,于2025年12月4日发射入轨,承担全球卫星互联网服务的组网任务。星链项目旨在通过大规模低轨卫星星座,为全球偏远地区、海洋等区域提供高速互联网接入服务,STARLINK-35855进一步扩展了星座的服务覆盖与容量。

基本信息
目录编号:
66891
目录名称:
STARLINK-35855
国际标识:
2025-283P
轨道中心:
EARTH
卫星名称:
星链-35855
卫星全名:
星链-35855(STARLINK-35855)
卫星状态:
在轨 (已飞行191 天)
发射日期:
2025-12-04 UTC
国别 :
美国 (US)
星等 :
--
轨道信息
数据来源 国际轨道数据
星历时间: 2026-06-12T10:17:48+0800
1天前
查看轨道信息
半长轴: 6840.796km
偏心率: 0.0001338
轨道倾角: 53.161°
近地点辐角 52.127°
升交点赤经 305.267°
平近点角 307.985°
近地点: 461.743km
远地点: 463.575km
周期: 93.847分钟
每日圈数: 15.344152
详细信息
固有亮度:
5
最大亮度:
2.5
卫星平台:
Starlink V1.0
覆盖范围:
全球
运营商:
太空探索技术公司
运营商所在国:
美国
制造商(研发单位):
太空探索技术公司
制造商所在国:
美国
使用方式:
暂无
卫星简介
Starlink 计划是 SpaceX 推出的全球卫星互联网项目,通过发射低轨道卫星,为全球尤其是偏远地区提供高速、低延迟的互联网服务。自 2019 年起,Starlink 已部署数千颗卫星,旨在缩小全球数字鸿沟,推动互联网普及。该项目还为军事、航空等行业提供通信支持,带来广泛经济效益。
2D轨道图
3D轨道图
轨道高度分析图
轨道倾角分析图
轨道综合分析图
查看轨道综合分析图